START_TIME,STEP,MOV.,M15,t_acc.,M20,t_acc.
1980-11-15 12:00:32.490 ,0,0,0.,24.0,0.,24.0
1980-11-15 12:00:56.490 ,0,1,0.,24.0,0.,24.0
1980-11-15 12:01:20.490 ,0,0,0.,24.0,0.,24.0
1980-11-15 12:03:20.490 ,0,0,0.,24.0,0.,24.0
1980-11-15 12:03:44.490 ,0,0,0.,24.0,0.,24.0
1980-11-15 12:04:08.490 ,4,1,0.,24.0,0.,24.0
1980-11-15 12:04:32.490 ,4,0,0.,24.0,0.,24.0
1980-11-15 12:03:20.490 ,0,0,0.,24.0,0.,24.0
1980-11-15 12:03:44.490 ,0,0,0.,24.0,0.,24.0
1980-11-15 12:04:08.490 ,4,1,0.,24.0,0.,24.0
1980-11-15 12:04:32.490 ,4,0,0.,24.0,0.,24.0
1980-11-15 12:03:44.490 ,0,0,0.,24.0,0.,24.0
1980-11-15 12:04:08.490 ,4,1,0.,24.0,0.,24.0
1980-11-15 12:04:32.490 ,4,0,0.,24.0,0.,24.0
1980-11-15 12:13:44.490 ,0,1,0.,24.0,0.,24.0
1980-11-15 12:14:08.490 ,0,0,0.,24.0,0.,24.0
1980-11-15 12:14:32.490 ,1,1,0.,24.0,0.,24.0
1980-11-15 12:14:56.490 ,1,0,0.,24.0,0.,24.0
1980-11-15 12:15:20.490 ,2,1,0.,24.0,0.,24.0
1980-11-15 12:15:44.490 ,2,0,0.,24.0,0.,24.0
1980-11-15 12:16:08.490 ,3,1,0.,24.0,0.,24.0
1980-11-15 12:16:32.490 ,3,0,0.,24.0,0.,24.0
1980-11-15 12:16:56.490 ,4,1,0.,24.0,0.,24.0
1980-11-15 12:17:20.490 ,4,0,0.,24.0,0.,24.0
1980-11-15 12:17:44.490 ,5,1,0.,24.0,0.,24.0
1980-11-15 12:18:08.490 ,5,0,0.,24.0,0.,24.0
1980-11-15 12:18:32.490 ,6,1,0.,24.0,0.,24.0
1980-11-15 12:18:56.490 ,6,0,0.,24.0,0.,24.0
1980-11-15 12:19:20.490 ,7,1,0.,24.0,0.,24.0
1980-11-15 12:19:44.490 ,7,0,0.,24.0,0.,24.0
1980-11-15 12:20:08.490 ,7,1,0.,24.0,0.,24.0
1980-11-15 12:20:32.490 ,7,0,0.,24.0,0.,24.0
1980-11-15 12:20:56.490 ,6,1,0.,24.0,0.,24.0
1980-11-15 12:21:20.490 ,6,0,0.,24.0,0.,24.0
1980-11-15 12:21:44.490 ,5,1,0.,24.0,0.,24.0
1980-11-15 12:22:08.490 ,5,0,0.,24.0,0.,24.0
1980-11-15 12:22:32.490 ,4,1,0.,24.0,0.,24.0
1980-11-15 12:22:56.490 ,4,0,0.,24.0,0.,24.0
1980-11-15 12:23:20.490 ,3,1,0.,24.0,0.,24.0
1980-11-15 12:23:44.490 ,3,0,0.,24.0,0.,24.0
1980-11-15 12:24:08.490 ,2,1,0.,24.0,0.,24.0
1980-11-15 12:24:32.490 ,2,0,0.,24.0,0.,24.0
1980-11-15 12:24:56.490 ,1,1,0.,24.0,0.,24.0
1980-11-15 12:25:20.490 ,1,0,0.,24.0,0.,24.0
1980-11-15 12:25:44.490 ,0,1,0.,24.0,0.,24.0
1980-11-15 12:26:08.490 ,0,0,0.,24.0,0.,24.0
1980-11-15 12:26:32.490 ,0,1,0.,24.0,0.,24.0
1980-11-15 12:26:56.490 ,0,0,0.,24.0,0.,24.0
1980-11-15 12:27:20.490 ,1,1,0.,24.0,0.,24.0
1980-11-15 12:27:44.490 ,1,0,0.,24.0,0.,24.0
1980-11-15 12:28:08.490 ,2,1,0.,24.0,0.,24.0
1980-11-15 12:28:32.490 ,2,0,0.,24.0,0.,24.0
1980-11-15 12:28:56.490 ,3,1,0.,24.0,0.,24.0
1980-11-15 12:29:20.490 ,3,0,0.,24.0,0.,24.0
1980-11-15 12:29:44.490 ,4,1,0.,24.0,0.,24.0
1980-11-15 12:30:08.490 ,4,0,0.,24.0,0.,24.0
1980-11-15 12:30:32.490 ,5,1,0.,24.0,0.,24.0
1980-11-15 12:30:56.490 ,5,0,0.,24.0,0.,24.0
1980-11-15 12:31:20.490 ,6,1,0.,24.0,0.,24.0
1980-11-15 12:31:44.490 ,6,0,0.,24.0,0.,24.0
1980-11-15 12:32:08.490 ,7,1,0.,24.0,0.,24.0
1980-11-15 12:32:32.490 ,7,0,0.,24.0,0.,24.0
1980-11-15 12:32:56.490 ,7,1,0.,24.0,0.,24.0
1980-11-15 12:33:20.490 ,7,0,0.,24.0,0.,24.0
1980-11-15 12:33:44.490 ,6,1,0.,24.0,0.,24.0
1980-11-15 12:34:08.490 ,6,0,0.,24.0,0.,24.0
1980-11-15 12:34:32.490 ,5,1,0.,24.0,0.,24.0
1980-11-15 12:34:56.490 ,5,0,0.,24.0,0.,24.0
1980-11-15 12:35:20.490 ,4,1,0.,24.0,0.,24.0
1980-11-15 12:35:44.490 ,4,0,0.,24.0,0.,24.0
1980-11-15 12:36:08.490 ,3,1,0.,24.0,0.,24.0
1980-11-15 12:36:32.490 ,3,0,0.,24.0,0.,24.0
1980-11-15 12:36:56.490 ,2,1,0.,24.0,0.,24.0
1980-11-15 12:37:20.490 ,2,0,0.,24.0,0.,24.0
1980-11-15 12:37:44.490 ,1,1,0.,24.0,0.,24.0
1980-11-15 12:38:08.490 ,1,0,0.,24.0,0.,24.0
1980-11-15 12:38:32.490 ,0,1,0.,24.0,0.,24.0
1980-11-15 12:38:56.490 ,0,0,0.,24.0,0.,24.0
1980-11-15 12:39:20.490 ,0,1,0.,24.0,0.,24.0
1980-11-15 12:39:44.490 ,0,0,0.,24.0,0.,24.0
1980-11-15 12:40:08.490 ,1,1,0.,24.0,0.,24.0
1980-11-15 12:40:32.490 ,1,0,0.,24.0,0.,24.0
1980-11-15 12:40:56.490 ,2,1,0.,24.0,0.,24.0
1980-11-15 12:41:20.490 ,2,0,0.,24.0,0.,24.0
1980-11-15 12:41:44.490 ,3,1,0.,24.0,0.,24.0
1980-11-15 12:42:08.490 ,3,0,0.,24.0,0.,24.0
1980-11-15 12:42:32.490 ,4,1,0.,24.0,0.,24.0
1980-11-15 12:42:56.490 ,4,0,0.,24.0,0.,24.0
1980-11-15 12:43:20.490 ,5,1,0.,24.0,0.,24.0
1980-11-15 12:43:44.490 ,5,0,0.,24.0,0.,24.0
1980-11-15 12:44:08.490 ,6,1,0.,24.0,0.,24.0
1980-11-15 12:44:32.490 ,6,0,0.,24.0,0.,24.0
1980-11-15 12:44:56.490 ,7,1,0.,24.0,0.,24.0
1980-11-15 12:45:20.490 ,7,0,0.,24.0,0.,24.0
1980-11-15 12:45:44.490 ,7,1,0.,24.0,0.,24.0
1980-11-15 12:46:08.490 ,7,0,0.,24.0,0.,24.0
1980-11-15 12:46:32.490 ,6,1,0.,24.0,0.,24.0
1980-11-15 12:46:56.490 ,6,0,0.,24.0,0.,24.0
1980-11-15 12:47:20.490 ,5,1,0.,24.0,0.,24.0
1980-11-15 12:47:44.490 ,5,0,0.,24.0,0.,24.0
1980-11-15 12:48:08.490 ,4,1,0.,24.0,0.,24.0
1980-11-15 12:48:32.490 ,4,0,0.,24.0,0.,24.0
1980-11-15 12:48:56.490 ,3,1,0.,24.0,0.,24.0
1980-11-15 12:49:20.490 ,3,0,0.,24.0,0.,24.0
1980-11-15 12:49:44.490 ,2,1,0.,24.0,0.,24.0
1980-11-15 12:50:08.490 ,2,0,0.,24.0,0.,24.0
1980-11-15 12:50:32.490 ,1,1,0.,24.0,0.,24.0
1980-11-15 12:50:56.490 ,1,0,0.,24.0,0.,24.0
1980-11-15 12:51:20.490 ,0,1,0.,24.0,0.,24.0
1980-11-15 12:51:44.490 ,0,0,0.,24.0,0.,24.0
1980-11-15 12:52:08.490 ,0,1,0.,24.0,0.,24.0
1980-11-15 12:52:32.490 ,0,0,0.,24.0,0.,24.0
1980-11-15 12:52:56.490 ,1,1,0.,24.0,0.,24.0
1980-11-15 12:53:20.490 ,1,0,0.,24.0,0.,24.0
1980-11-15 12:53:44.490 ,2,1,0.,24.0,0.,24.0
1980-11-15 12:54:08.490 ,2,0,0.,24.0,0.,24.0
1980-11-15 12:54:32.490 ,3,1,0.,24.0,0.,24.0
1980-11-15 12:54:56.490 ,3,0,0.,24.0,0.,24.0
1980-11-15 12:55:20.490 ,4,1,0.,24.0,0.,24.0
1980-11-15 12:55:44.490 ,4,0,0.,24.0,0.,24.0
1980-11-15 12:56:08.490 ,5,1,0.,24.0,0.,24.0
1980-11-15 12:56:32.490 ,5,0,0.,24.0,0.,24.0
1980-11-15 12:56:56.490 ,6,1,0.,24.0,0.,24.0
1980-11-15 12:57:20.490 ,6,0,0.,24.0,0.,24.0
1980-11-15 12:57:44.490 ,7,1,0.,24.0,0.,24.0
1980-11-15 12:58:08.490 ,7,0,0.,24.0,0.,24.0
1980-11-15 12:58:32.490 ,7,1,0.,24.0,0.,24.0
1980-11-15 12:58:56.490 ,7,0,0.,24.0,0.,24.0
1980-11-15 12:59:20.490 ,6,1,0.,24.0,0.,24.0
1980-11-15 12:59:44.490 ,6,0,0.,24.0,0.,24.0
1980-11-15 13:00:08.490 ,5,1,0.,24.0,0.,24.0
1980-11-15 13:00:32.490 ,5,0,0.,24.0,0.,24.0
1980-11-15 13:00:56.490 ,4,1,0.,24.0,0.,24.0
1980-11-15 13:01:20.490 ,4,0,0.,24.0,0.,24.0
1980-11-15 13:01:44.490 ,3,1,0.,24.0,0.,24.0
1980-11-15 13:02:08.490 ,3,0,0.,24.0,0.,24.0
1980-11-15 13:02:32.490 ,2,1,0.,24.0,0.,24.0
1980-11-15 13:02:56.490 ,2,0,0.,24.0,0.,24.0
1980-11-15 13:03:20.490 ,1,1,0.,24.0,0.,24.0
1980-11-15 13:03:44.490 ,1,0,0.,24.0,0.,24.0
1980-11-15 13:04:08.490 ,0,1,0.,24.0,0.,24.0
1980-11-15 13:04:32.490 ,0,0,0.,24.0,0.,24.0
1980-11-15 13:04:56.490 ,0,1,0.,24.0,0.,24.0
1980-11-15 13:05:20.490 ,0,0,0.,24.0,0.,24.0
1980-11-15 13:05:44.490 ,1,1,0.,24.0,0.,24.0
1980-11-15 13:06:08.490 ,1,0,0.,24.0,0.,24.0
1980-11-15 13:06:32.490 ,2,1,0.,24.0,0.,24.0
1980-11-15 13:06:56.490 ,2,0,0.,24.0,0.,24.0
1980-11-15 13:07:20.490 ,3,1,0.,24.0,0.,24.0
1980-11-15 13:07:44.490 ,3,0,0.,24.0,0.,24.0
1980-11-15 13:08:08.490 ,4,1,0.,24.0,0.,24.0
1980-11-15 13:08:32.490 ,4,0,0.,24.0,0.,24.0
1980-11-15 13:08:56.490 ,5,1,0.,24.0,0.,24.0
1980-11-15 13:09:20.490 ,5,0,0.,24.0,0.,24.0
1980-11-15 13:09:44.490 ,6,1,0.,24.0,0.,24.0
1980-11-15 13:10:08.490 ,6,0,0.,24.0,0.,24.0
1980-11-15 13:10:32.490 ,7,1,0.,24.0,0.,24.0
1980-11-15 13:10:56.490 ,7,0,0.,24.0,0.,24.0
1980-11-15 13:11:20.490 ,7,1,0.,24.0,0.,24.0
1980-11-15 13:11:44.490 ,7,0,0.,24.0,0.,24.0
1980-11-15 13:12:08.490 ,6,1,0.,24.0,0.,24.0
1980-11-15 13:12:32.490 ,6,0,0.,24.0,0.,24.0
1980-11-15 13:12:56.490 ,5,1,0.,24.0,0.,24.0
1980-11-15 13:13:20.490 ,5,0,0.,24.0,0.,24.0
1980-11-15 13:13:44.490 ,4,1,0.,24.0,0.,24.0
1980-11-15 13:14:08.490 ,4,0,0.,24.0,0.,24.0
1980-11-15 13:14:32.490 ,3,1,0.,24.0,0.,24.0
1980-11-15 13:14:56.490 ,3,0,0.,24.0,0.,24.0
1980-11-15 13:15:20.490 ,2,1,0.,24.0,0.,24.0
1980-11-15 13:15:44.490 ,2,0,0.,24.0,0.,24.0
1980-11-15 13:16:08.490 ,1,1,0.,24.0,0.,24.0
1980-11-15 13:16:32.490 ,1,0,0.,24.0,0.,24.0
1980-11-15 13:16:56.490 ,0,1,0.,24.0,0.,24.0
1980-11-15 13:17:20.490 ,0,0,0.,24.0,0.,24.0
1980-11-15 13:17:44.490 ,0,1,0.,24.0,0.,24.0
1980-11-15 13:18:08.490 ,0,0,0.,24.0,0.,24.0
1980-11-15 13:18:32.490 ,1,1,0.,24.0,0.,24.0
1980-11-15 13:18:56.490 ,1,0,0.,24.0,0.,24.0
1980-11-15 13:19:20.490 ,2,1,0.,24.0,0.,24.0
1980-11-15 13:19:44.490 ,2,0,0.,24.0,0.,24.0
1980-11-15 13:20:08.490 ,3,1,0.,24.0,0.,24.0
1980-11-15 13:20:32.490 ,3,0,0.,24.0,0.,24.0
1980-11-15 13:20:56.490 ,4,1,0.,24.0,0.,24.0
1980-11-15 13:21:20.490 ,4,0,0.,24.0,1.,24.0
1980-11-15 13:21:44.490 ,5,1,0.,24.0,0.,24.0
1980-11-15 13:22:08.490 ,5,0,0.,24.0,0.,24.0
1980-11-15 13:22:32.490 ,6,1,0.,24.0,0.,24.0
1980-11-15 13:22:56.490 ,6,0,0.,24.0,0.,24.0
1980-11-15 13:23:20.490 ,7,1,0.,24.0,0.,24.0
1980-11-15 13:23:44.490 ,7,0,0.,24.0,0.,24.0
1980-11-15 13:24:08.490 ,7,1,0.,24.0,0.,24.0
1980-11-15 13:24:32.490 ,7,0,0.,24.0,0.,24.0
1980-11-15 13:24:56.490 ,6,1,0.,24.0,0.,24.0
1980-11-15 13:25:20.490 ,6,0,0.,24.0,0.,24.0
1980-11-15 13:25:44.490 ,5,1,0.,24.0,0.,24.0
1980-11-15 13:26:08.490 ,5,0,0.,24.0,0.,24.0
1980-11-15 13:26:32.490 ,4,1,0.,24.0,0.,24.0
1980-11-15 13:26:56.490 ,4,0,0.,24.0,0.,24.0
1980-11-15 13:27:20.490 ,3,1,0.,24.0,0.,24.0
1980-11-15 13:27:44.490 ,3,0,0.,24.0,0.,24.0
1980-11-15 13:28:08.490 ,2,1,0.,24.0,0.,24.0
1980-11-15 13:28:32.490 ,2,0,0.,24.0,0.,24.0
1980-11-15 13:28:56.490 ,1,1,0.,24.0,0.,24.0
1980-11-15 13:29:20.490 ,1,0,0.,24.0,0.,24.0
1980-11-15 13:29:44.490 ,0,1,0.,24.0,0.,24.0
1980-11-15 13:30:08.490 ,0,0,0.,24.0,0.,24.0
1980-11-15 13:30:32.490 ,0,1,0.,24.0,0.,24.0
1980-11-15 13:30:56.490 ,0,0,0.,24.0,0.,24.0
1980-11-15 13:31:20.490 ,1,1,0.,24.0,0.,24.0
1980-11-15 13:31:44.490 ,1,0,0.,24.0,0.,24.0
1980-11-15 13:32:08.490 ,2,1,0.,24.0,0.,24.0
1980-11-15 13:32:32.490 ,2,0,0.,24.0,0.,24.0
1980-11-15 13:32:56.490 ,3,1,0.,24.0,0.,24.0
1980-11-15 13:33:20.490 ,3,0,0.,24.0,0.,24.0
1980-11-15 13:33:44.490 ,4,1,0.,24.0,0.,24.0
1980-11-15 13:34:08.490 ,4,0,0.,24.0,0.,24.0
1980-11-15 13:34:32.490 ,5,1,0.,24.0,0.,24.0
1980-11-15 13:34:56.490 ,5,0,0.,24.0,0.,24.0
1980-11-15 13:35:20.490 ,6,1,0.,24.0,0.,24.0
1980-11-15 13:35:44.490 ,6,0,0.,24.0,0.,24.0
1980-11-15 13:36:08.490 ,7,1,0.,24.0,0.,24.0
1980-11-15 13:36:32.490 ,7,0,0.,24.0,0.,24.0
1980-11-15 13:36:56.490 ,7,1,0.,24.0,0.,24.0
1980-11-15 13:37:20.490 ,7,0,0.,24.0,0.,24.0
1980-11-15 13:37:44.490 ,6,1,0.,24.0,0.,24.0
1980-11-15 13:38:08.490 ,6,0,0.,24.0,0.,24.0
1980-11-15 13:38:32.490 ,5,1,0.,24.0,0.,24.0
1980-11-15 13:38:56.490 ,5,0,0.,24.0,0.,24.0
1980-11-15 13:39:20.490 ,4,1,0.,24.0,0.,24.0
1980-11-15 13:39:44.490 ,4,0,0.,24.0,0.,24.0
1980-11-15 13:40:08.490 ,3,1,0.,24.0,0.,24.0
1980-11-15 13:40:32.490 ,3,0,0.,24.0,0.,24.0
1980-11-15 13:40:56.490 ,2,1,0.,24.0,0.,24.0
1980-11-15 13:41:20.490 ,2,0,0.,24.0,0.,24.0
1980-11-15 13:41:44.490 ,1,1,0.,24.0,0.,24.0
1980-11-15 13:42:08.490 ,1,0,0.,24.0,0.,24.0
1980-11-15 13:42:32.490 ,0,1,0.,24.0,0.,24.0
1980-11-15 13:42:56.490 ,0,0,0.,24.0,0.,24.0
1980-11-15 13:43:20.490 ,0,1,0.,24.0,0.,24.0
1980-11-15 13:43:44.490 ,0,0,0.,24.0,0.,24.0
1980-11-15 13:44:08.490 ,1,1,0.,24.0,0.,24.0
1980-11-15 13:44:32.490 ,1,0,0.,24.0,0.,24.0
1980-11-15 13:44:56.490 ,2,1,0.,24.0,0.,24.0
1980-11-15 13:45:20.490 ,2,0,0.,24.0,0.,24.0
1980-11-15 13:45:44.490 ,3,1,0.,24.0,0.,24.0
1980-11-15 13:46:08.490 ,3,0,0.,24.0,0.,24.0
1980-11-15 13:46:32.490 ,4,1,0.,24.0,0.,24.0
1980-11-15 13:46:56.490 ,4,0,0.,24.0,0.,24.0
1980-11-15 13:47:20.490 ,5,1,0.,24.0,0.,24.0
1980-11-15 13:47:44.490 ,5,0,0.,24.0,0.,24.0
1980-11-15 13:48:08.490 ,6,1,0.,24.0,0.,24.0
1980-11-15 13:48:32.490 ,6,0,0.,24.0,0.,24.0
1980-11-15 13:48:56.490 ,7,1,0.,24.0,0.,24.0
1980-11-15 13:49:20.490 ,7,0,0.,24.0,0.,24.0
1980-11-15 13:49:44.490 ,7,1,0.,24.0,0.,24.0
1980-11-15 13:50:08.490 ,7,0,0.,24.0,0.,24.0
1980-11-15 13:50:32.490 ,6,1,0.,24.0,0.,24.0
1980-11-15 13:50:56.490 ,6,0,0.,24.0,0.,24.0
1980-11-15 13:51:20.490 ,5,1,0.,24.0,0.,24.0
1980-11-15 13:51:44.490 ,5,0,0.,24.0,0.,24.0
1980-11-15 13:52:08.490 ,4,1,0.,24.0,0.,24.0
1980-11-15 13:52:32.490 ,4,0,0.,24.0,0.,24.0
1980-11-15 13:52:56.490 ,3,1,0.,24.0,0.,24.0
1980-11-15 13:53:20.490 ,3,0,0.,24.0,0.,24.0
1980-11-15 13:53:44.490 ,2,1,0.,24.0,0.,24.0
1980-11-15 13:54:08.490 ,2,0,0.,24.0,0.,24.0
1980-11-15 13:54:32.490 ,1,1,0.,24.0,0.,24.0
1980-11-15 13:54:56.490 ,1,0,0.,24.0,0.,24.0
1980-11-15 13:55:20.490 ,0,1,0.,24.0,0.,24.0
1980-11-15 13:55:44.490 ,0,0,0.,24.0,0.,24.0
1980-11-15 13:56:08.490 ,0,1,0.,24.0,0.,24.0
1980-11-15 13:56:32.490 ,0,0,0.,24.0,0.,24.0
1980-11-15 13:56:56.490 ,1,1,0.,24.0,0.,24.0
1980-11-15 13:57:20.490 ,1,0,0.,24.0,0.,24.0
1980-11-15 13:57:44.490 ,2,1,0.,24.0,0.,24.0
1980-11-15 13:58:08.490 ,2,0,0.,24.0,0.,24.0
1980-11-15 13:58:32.490 ,3,1,0.,24.0,0.,24.0
1980-11-15 13:58:56.490 ,3,0,0.,24.0,0.,24.0
1980-11-15 13:59:20.490 ,4,1,0.,24.0,0.,24.0
1980-11-15 13:59:44.490 ,4,0,0.,24.0,0.,24.0
1980-11-15 14:00:08.490 ,5,1,0.,24.0,0.,24.0
1980-11-15 14:00:32.490 ,5,0,0.,24.0,0.,24.0
1980-11-15 14:00:56.490 ,6,1,0.,24.0,0.,24.0
1980-11-15 14:01:20.490 ,6,0,0.,24.0,0.,24.0
1980-11-15 14:01:44.490 ,7,1,0.,24.0,0.,24.0
1980-11-15 14:02:08.490 ,7,0,0.,24.0,0.,24.0
1980-11-15 14:02:32.490 ,7,1,0.,24.0,0.,24.0
1980-11-15 14:02:56.490 ,7,0,0.,24.0,0.,24.0
1980-11-15 14:03:20.490 ,6,1,0.,24.0,0.,24.0
1980-11-15 14:03:44.490 ,6,0,0.,24.0,0.,24.0
1980-11-15 14:04:08.490 ,5,1,0.,24.0,0.,24.0
1980-11-15 14:04:32.490 ,5,0,0.,24.0,0.,24.0
1980-11-15 14:04:56.490 ,4,1,0.,24.0,0.,24.0
1980-11-15 14:05:20.490 ,4,0,0.,24.0,0.,24.0
1980-11-15 14:05:44.490 ,3,1,0.,24.0,0.,24.0
1980-11-15 14:06:08.490 ,3,0,0.,24.0,0.,24.0
1980-11-15 14:06:32.490 ,2,1,0.,24.0,0.,24.0
1980-11-15 14:06:56.490 ,2,0,0.,24.0,0.,24.0
1980-11-15 14:07:20.490 ,1,1,0.,24.0,0.,24.0
1980-11-15 14:07:44.490 ,1,0,0.,24.0,0.,24.0
1980-11-15 14:08:08.490 ,0,1,0.,24.0,0.,24.0
1980-11-15 14:08:32.490 ,0,0,0.,24.0,0.,24.0
1980-11-15 14:08:56.490 ,0,1,0.,24.0,0.,24.0
1980-11-15 14:09:20.490 ,0,0,0.,24.0,0.,24.0
1980-11-15 14:09:44.490 ,1,1,0.,24.0,0.,24.0
1980-11-15 14:10:08.490 ,1,0,0.,24.0,0.,24.0
1980-11-15 14:10:32.490 ,2,1,0.,24.0,0.,24.0
1980-11-15 14:10:56.490 ,2,0,0.,24.0,0.,24.0
1980-11-15 14:11:20.490 ,3,1,0.,24.0,0.,24.0
1980-11-15 14:11:44.490 ,3,0,0.,24.0,0.,24.0
1980-11-15 14:12:08.490 ,4,1,0.,24.0,0.,24.0
1980-11-15 14:12:32.490 ,4,0,0.,24.0,0.,24.0
1980-11-15 14:12:56.490 ,5,1,0.,24.0,0.,24.0
1980-11-15 14:13:20.490 ,5,0,0.,24.0,0.,24.0
1980-11-15 14:13:44.490 ,6,1,0.,24.0,0.,24.0
1980-11-15 14:14:08.490 ,6,0,0.,24.0,0.,24.0
1980-11-15 14:14:32.490 ,7,1,0.,24.0,0.,24.0
1980-11-15 14:14:56.490 ,7,0,0.,24.0,0.,24.0
1980-11-15 14:15:20.490 ,7,1,0.,24.0,0.,24.0
1980-11-15 14:15:44.490 ,7,0,0.,24.0,0.,24.0
1980-11-15 14:16:08.490 ,6,1,0.,24.0,0.,24.0
1980-11-15 14:16:32.490 ,6,0,0.,24.0,0.,24.0
1980-11-15 14:16:56.490 ,5,1,0.,24.0,0.,24.0
1980-11-15 14:17:20.490 ,5,0,0.,24.0,0.,24.0
1980-11-15 14:17:44.490 ,4,1,0.,24.0,0.,24.0
1980-11-15 14:18:08.490 ,4,0,0.,24.0,0.,24.0
1980-11-15 14:18:32.490 ,3,1,0.,24.0,0.,24.0
1980-11-15 14:18:56.490 ,3,0,0.,24.0,0.,24.0
1980-11-15 14:19:20.490 ,2,1,0.,24.0,0.,24.0
1980-11-15 14:19:44.490 ,2,0,0.,24.0,0.,24.0
1980-11-15 14:20:08.490 ,1,1,0.,24.0,0.,24.0
1980-11-15 14:20:32.490 ,1,0,0.,24.0,0.,24.0
1980-11-15 14:20:56.490 ,0,1,0.,24.0,0.,24.0
1980-11-15 14:21:20.490 ,0,0,0.,24.0,0.,24.0
1980-11-15 14:21:44.490 ,0,1,0.,24.0,0.,24.0
1980-11-15 14:22:08.490 ,0,0,0.,24.0,0.,24.0
1980-11-15 14:22:32.490 ,1,1,0.,24.0,0.,24.0
1980-11-15 14:22:56.490 ,1,0,0.,24.0,0.,24.0
1980-11-15 14:23:20.490 ,2,1,0.,24.0,0.,24.0
1980-11-15 14:23:44.490 ,2,0,0.,24.0,0.,24.0
1980-11-15 14:24:08.490 ,3,1,0.,24.0,0.,24.0
1980-11-15 14:24:32.490 ,3,0,0.,24.0,0.,24.0
1980-11-15 14:24:56.490 ,4,1,0.,24.0,0.,24.0
1980-11-15 14:25:20.490 ,4,0,0.,24.0,0.,24.0
1980-11-15 14:25:44.490 ,5,1,0.,24.0,0.,24.0
1980-11-15 14:26:08.490 ,5,0,0.,24.0,0.,24.0
1980-11-15 14:26:32.490 ,6,1,0.,24.0,0.,24.0
1980-11-15 14:26:56.490 ,6,0,0.,24.0,0.,24.0
1980-11-15 14:27:20.490 ,7,1,0.,24.0,0.,24.0
1980-11-15 14:27:44.490 ,7,0,0.,24.0,0.,24.0
1980-11-15 14:28:08.490 ,7,1,0.,24.0,0.,24.0
1980-11-15 14:28:32.490 ,7,0,0.,24.0,0.,24.0
1980-11-15 14:28:56.490 ,6,1,0.,24.0,0.,24.0
1980-11-15 14:29:20.490 ,6,0,0.,24.0,0.,24.0
1980-11-15 14:29:44.490 ,5,1,0.,24.0,0.,24.0
1980-11-15 14:30:08.490 ,5,0,0.,24.0,0.,24.0
1980-11-15 14:30:32.490 ,4,1,0.,24.0,0.,24.0
1980-11-15 14:30:56.490 ,4,0,0.,24.0,0.,24.0
1980-11-15 14:31:20.490 ,3,1,0.,24.0,0.,24.0
1980-11-15 14:31:44.490 ,3,0,0.,24.0,0.,24.0
1980-11-15 14:32:08.490 ,2,1,0.,24.0,0.,24.0
1980-11-15 14:32:32.490 ,2,0,0.,24.0,0.,24.0
1980-11-15 14:32:56.490 ,1,1,0.,24.0,0.,24.0
1980-11-15 14:33:20.490 ,1,0,0.,24.0,0.,24.0
1980-11-15 14:33:44.490 ,0,1,0.,24.0,0.,24.0
1980-11-15 14:34:08.490 ,0,0,0.,24.0,0.,24.0
1980-11-15 14:34:32.490 ,0,1,1.,24.0,0.,24.0
1980-11-15 14:34:56.490 ,0,0,0.,24.0,0.,24.0
1980-11-15 14:35:20.490 ,1,1,0.,24.0,0.,24.0
1980-11-15 14:35:44.490 ,1,0,0.,24.0,0.,24.0
1980-11-15 14:36:08.490 ,2,1,0.,24.0,0.,24.0
1980-11-15 14:36:32.490 ,2,0,0.,24.0,0.,24.0
1980-11-15 14:36:56.490 ,3,1,0.,24.0,0.,24.0
1980-11-15 14:37:20.490 ,3,0,0.,24.0,0.,24.0
1980-11-15 14:37:44.490 ,4,1,0.,24.0,0.,24.0
1980-11-15 14:38:08.490 ,4,0,0.,24.0,0.,24.0
1980-11-15 14:38:32.490 ,5,1,0.,24.0,0.,24.0
1980-11-15 14:38:56.490 ,5,0,0.,24.0,0.,24.0
1980-11-15 14:39:20.490 ,6,1,0.,24.0,0.,24.0
1980-11-15 14:39:44.490 ,6,0,0.,24.0,0.,24.0
1980-11-15 14:40:08.490 ,7,1,0.,24.0,0.,24.0
1980-11-15 14:40:32.490 ,7,0,0.,24.0,0.,24.0
1980-11-15 14:40:56.490 ,7,1,0.,24.0,0.,24.0
1980-11-15 14:41:20.490 ,7,0,0.,24.0,0.,24.0
1980-11-15 14:41:44.490 ,6,1,0.,24.0,0.,24.0
1980-11-15 14:42:08.490 ,6,0,0.,24.0,0.,24.0
1980-11-15 14:42:32.490 ,5,1,0.,24.0,0.,24.0
1980-11-15 14:42:56.490 ,5,0,0.,24.0,0.,24.0
1980-11-15 14:43:20.490 ,4,1,0.,24.0,0.,24.0
1980-11-15 14:43:44.490 ,4,0,0.,24.0,0.,24.0
1980-11-15 14:44:08.490 ,3,1,0.,24.0,0.,24.0
1980-11-15 14:44:32.490 ,3,0,0.,24.0,0.,24.0
1980-11-15 14:44:56.490 ,2,1,0.,24.0,0.,24.0
1980-11-15 14:45:20.490 ,2,0,0.,24.0,0.,24.0
1980-11-15 14:45:44.490 ,1,1,0.,24.0,0.,24.0
1980-11-15 14:46:08.490 ,1,0,0.,24.0,0.,24.0
1980-11-15 14:46:32.490 ,0,1,0.,24.0,0.,24.0
1980-11-15 14:46:56.490 ,0,0,0.,24.0,0.,24.0
1980-11-15 14:47:20.490 ,0,1,0.,24.0,0.,24.0
1980-11-15 14:47:44.490 ,0,0,0.,24.0,0.,24.0
1980-11-15 14:48:08.490 ,1,1,0.,24.0,0.,24.0
1980-11-15 14:48:32.490 ,1,0,0.,24.0,0.,24.0
1980-11-15 14:48:56.490 ,2,1,0.,24.0,0.,24.0
1980-11-15 14:49:20.490 ,2,0,0.,24.0,0.,24.0
1980-11-15 14:37:44.490 ,0,0,0.,24.0,0.,24.0
1980-11-15 14:38:08.490 ,0,0,0.,24.0,0.,24.0
1980-11-15 14:38:32.490 ,5,1,0.,24.0,0.,24.0
1980-11-15 14:38:56.490 ,5,0,0.,24.0,0.,24.0
1980-11-15 14:39:20.490 ,6,1,0.,24.0,0.,24.0
1980-11-15 14:39:44.490 ,6,0,0.,24.0,0.,24.0
1980-11-15 14:40:08.490 ,7,1,0.,24.0,0.,24.0
1980-11-15 14:40:32.490 ,7,0,0.,24.0,0.,24.0
1980-11-15 14:40:56.490 ,7,1,0.,24.0,0.,24.0
1980-11-15 14:41:20.490 ,7,0,0.,24.0,0.,24.0
1980-11-15 14:41:44.490 ,6,1,0.,24.0,0.,24.0
1980-11-15 14:42:08.490 ,6,0,0.,24.0,0.,24.0
1980-11-15 14:42:32.490 ,5,1,0.,24.0,0.,24.0
1980-11-15 14:42:56.490 ,5,0,0.,24.0,0.,24.0
1980-11-15 14:43:20.490 ,4,1,0.,24.0,0.,24.0
1980-11-15 14:43:44.490 ,4,0,0.,24.0,0.,24.0
1980-11-15 14:44:08.490 ,3,1,0.,24.0,0.,24.0
1980-11-15 14:44:32.490 ,3,0,0.,24.0,0.,24.0
1980-11-15 14:44:56.490 ,2,1,0.,24.0,0.,24.0
1980-11-15 14:45:20.490 ,2,0,0.,24.0,0.,24.0
1980-11-15 14:45:44.490 ,1,1,0.,24.0,0.,24.0
1980-11-15 14:46:08.490 ,1,0,0.,24.0,0.,24.0
1980-11-15 14:46:32.490 ,0,1,0.,24.0,0.,24.0
1980-11-15 14:46:56.490 ,0,0,0.,24.0,0.,24.0
1980-11-15 14:47:20.490 ,0,1,0.,24.0,0.,24.0
1980-11-15 14:47:44.490 ,0,0,0.,24.0,0.,24.0
1980-11-15 14:48:56.490 ,0,0,0.,24.0,0.,24.0
1980-11-15 14:49:20.490 ,0,0,0.,24.0,0.,24.0
1980-11-15 14:49:44.490 ,3,1,0.,24.0,0.,24.0
1980-11-15 14:50:08.490 ,3,0,0.,24.0,0.,24.0
1980-11-15 14:50:32.490 ,4,1,0.,24.0,0.,24.0
1980-11-15 14:50:56.490 ,4,0,0.,24.0,0.,24.0
1980-11-15 14:51:20.490 ,5,1,0.,24.0,0.,24.0
1980-11-15 14:51:44.490 ,5,0,0.,24.0,0.,24.0
1980-11-15 14:52:08.490 ,6,1,0.,24.0,0.,24.0
1980-11-15 14:52:32.490 ,6,0,0.,24.0,0.,24.0
1980-11-15 14:52:56.490 ,7,1,0.,24.0,0.,24.0
1980-11-15 14:53:20.490 ,7,0,0.,24.0,0.,24.0
1980-11-15 14:53:44.490 ,7,1,0.,24.0,0.,24.0
1980-11-15 14:54:08.490 ,7,0,0.,24.0,0.,24.0
1980-11-15 14:54:32.490 ,6,1,0.,24.0,0.,24.0
1980-11-15 14:54:56.490 ,6,0,0.,24.0,0.,24.0
1980-11-15 14:55:20.490 ,5,1,0.,24.0,0.,24.0
1980-11-15 14:55:44.490 ,5,0,0.,24.0,0.,24.0
1980-11-15 14:56:08.490 ,4,1,0.,24.0,0.,24.0
1980-11-15 14:56:32.490 ,4,0,0.,24.0,0.,24.0
1980-11-15 14:56:56.490 ,3,1,0.,24.0,0.,24.0
1980-11-15 14:57:20.490 ,3,0,0.,24.0,0.,24.0
1980-11-15 14:57:44.490 ,2,1,0.,24.0,0.,24.0
1980-11-15 14:58:08.490 ,2,0,0.,24.0,0.,24.0
1980-11-15 14:58:32.490 ,1,1,0.,24.0,0.,24.0
1980-11-15 14:58:56.490 ,1,0,0.,24.0,0.,24.0
1980-11-15 14:59:20.490 ,0,1,0.,24.0,0.,24.0
1980-11-15 14:59:44.490 ,0,0,0.,24.0,0.,24.0
1980-11-15 15:00:08.490 ,0,1,0.,24.0,0.,24.0
